TimeCDT,TemperatureF,Dew PointF,Humidity,Sea Level PressureIn,VisibilityMPH,Wind Direction,Wind SpeedMPH,Gust SpeedMPH,PrecipitationIn,Events,Conditions,WindDirDegrees,DateUTC
12:52 AM,41.0,36.0,82,30.10,10.0,Calm,Calm,-,N/A,,Overcast,0,2012-10-22 05:52:00
1:52 AM,42.1,36.0,79,30.10,10.0,North,3.5,-,N/A,,Overcast,360,2012-10-22 06:52:00
2:52 AM,42.1,36.0,79,30.12,10.0,Calm,Calm,-,N/A,,Overcast,0,2012-10-22 07:52:00
3:52 AM,41.0,35.1,79,30.12,10.0,East,4.6,-,N/A,,Overcast,100,2012-10-22 08:52:00
4:52 AM,42.1,33.1,70,30.12,10.0,ESE,3.5,-,N/A,,Overcast,110,2012-10-22 09:52:00
5:52 AM,41.0,33.8,76,30.06,10.0,ENE,8.1,-,N/A,Rain,Light Rain,60,2012-10-22 10:52:00
6:52 AM,42.8,33.8,70,30.06,10.0,NE,6.9,-,N/A,Rain,Light Rain,40,2012-10-22 11:52:00
7:52 AM,39.2,35.6,87,30.07,10.0,ENE,8.1,-,N/A,Rain,Light Rain,60,2012-10-22 12:52:00
8:52 AM,39.9,35.1,83,30.10,10.0,ENE,10.4,-,0.00,,Overcast,60,2012-10-22 13:52:00
9:52 AM,41.0,34.0,76,30.11,10.0,ENE,10.4,-,N/A,,Overcast,70,2012-10-22 14:52:00
10:52 AM,42.1,34.0,73,30.09,10.0,East,9.2,-,N/A,,Overcast,80,2012-10-22 15:52:00
11:52 AM,42.8,32.0,66,30.05,10.0,East,9.2,-,N/A,,Overcast,90,2012-10-22 16:52:00
12:52 PM,45.0,30.9,58,30.09,10.0,ESE,11.5,-,N/A,,Overcast,110,2012-10-22 17:52:00
1:52 PM,46.0,30.9,56,30.05,10.0,East,9.2,-,N/A,,Overcast,100,2012-10-22 18:52:00
2:52 PM,46.4,30.2,53,29.98,10.0,ENE,11.5,-,N/A,,Clear,70,2012-10-22 19:52:00
3:52 PM,46.9,30.0,52,29.99,10.0,East,12.7,-,N/A,,Clear,90,2012-10-22 20:52:00
4:52 PM,46.0,28.9,51,29.96,10.0,East,15.0,-,N/A,,Overcast,80,2012-10-22 21:52:00
5:52 PM,44.6,30.2,57,29.91,10.0,ENE,9.2,-,N/A,Rain,Light Rain,70,2012-10-22 22:52:00
6:52 PM,42.1,34.0,73,29.95,9.0,East,8.1,-,0.01,Rain,Light Rain,80,2012-10-22 23:52:00
8:52 PM,41.0,34.0,76,29.91,10.0,East,10.4,-,N/A,,Overcast,80,2012-10-23 01:52:00
9:52 PM,41.0,34.0,76,29.93,10.0,East,4.6,-,0.00,,Overcast,100,2012-10-23 02:52:00
10:16 PM,41.0,35.6,81,29.88,10.0,East,8.1,-,0.00,Rain,Light Rain,90,2012-10-23 03:16:00
11:20 PM,41.0,37.4,87,29.76,10.0,East,21.9,26.5,0.00,,Overcast,80,2012-10-23 04:20:00
11:52 PM,41.0,37.9,89,29.84,10.0,SE,10.4,-,0.00,,Overcast,130,2012-10-23 04:52:00